[[{"header":{"parameterUnit":"m.s-1","parameterCategory":1,"la1":30.2991,"la2":30.254,"lo1":-89.0895,"lo2":-89.0444,"dy":0.0017,"dx":0.0017,"nx":28,"ny":28,"refTime":"2023-10-18T21:00:00:Z","depth":0,"parameterNumber":2,"parameterNumberName":"U-component_of_WINDS"},"data":[0,0,0,0,0,0,0,0,0,0,0,0,0,0,0,0,0,0,0,0,0,0,0,0,0,0,0,0,0,0,0,0,0,0,0,0,0,0,0,0,0,0,0,0,0,0,0,0,0,0,0,0,0,0,0,0,0,0,3.9827,3.9828,0,3.9907,3.9908,3.9909,3.9857,3.9855,3.9852,3.985,3.9935,3.9939,3.9944,0,0,0,0,0,0,0,0,0,0,0,0,0,3.9632,3.9636,3.9827,3.9828,3.9829,3.9907,3.9908,3.9909,3.9858,3.9855,3.9852,3.9849,3.9934,3.9939,3.9944,0,0,0,0,0,0,0,0,0,0,0,0,0,3.9715,3.9637,3.9827,3.9812,3.9812,3.9907,3.9908,3.9909,3.9858,3.9855,3.9851,3.9848,3.9932,3.9938,3.9945,4.0059,0,0,3.9966,3.9969,0,0,0,0,0,0,0,0,3.971,3.9722,3.9813,3.9814,3.9813,3.9868,3.987,3.996,3.9859,3.9841,3.985,3.9846,3.9916,3.9924,3.9947,4.0063,4.0066,3.9966,3.997,3.9973,3.9975,0,0,0,0,0,0,0,3.9705,3.9718,3.9858,3.9815,3.9815,3.9803,3.9811,3.9887,3.9898,3.9842,3.9838,3.9849,3.9915,3.994,3.9948,4.0068,3.9966,3.9972,3.9976,3.9979,4.0283,4.0287,0,0,0,0,0,0,3.97,3.9714,3.9856,3.9861,3.9752,3.9809,3.9818,3.9854,3.9897,3.99,3.9852,3.9846,3.9931,3.9941,3.9951,4.0088,3.9973,3.9979,3.9983,4.0279,4.0284,4.0288,0,0,0,0,0,0,3.9696,3.9713,3.9853,3.9787,3.9803,3.9817,3.9858,3.9858,3.9883,3.9904,3.9906,3.9875,3.9928,3.9942,4.0033,4.0091,3.9983,3.9989,4.0274,4.028,4.0286,4.0363,0,0,0,0,0,0,3.969,3.9712,3.9754,3.9788,3.9807,3.9932,3.9861,3.9862,3.9894,3.9888,3.9926,3.993,3.9926,4.0023,4.0039,4.0098,3.9994,4.0269,4.0277,4.0284,4.0355,4.0371,4.0384,0,0,0,0,0,3.9683,3.9773,3.9757,3.9774,3.9861,3.9935,3.9947,3.994,3.9899,3.9943,3.9956,3.9928,4.0081,4.0033,4.0051,4.0112,4.0265,4.0275,4.0283,4.0349,4.0368,4.0384,0,0,0,0,0,0,3.9747,3.9777,3.9759,3.9862,3.9897,3.9927,3.9981,3.996,4.0008,4.0,3.9991,4.0,4.0095,4.0113,4.0058,4.0225,4.0167,4.018,4.0211,4.0229,4.0243,4.0237,4.0,0,0,0,0,0,3.9772,3.983,3.9854,3.9942,3.996,3.9968,4.0,3.9993,4.0028,4.0043,4.0063,4.0099,4.0156,4.0193,4.0246,4.0357,4.0366,4.0409,4.0423,4.0435,4.0447,4.0508,4.0528,4.0318,4.0318,4.0318,0,0,3.9827,3.985,3.9887,3.9956,3.9981,4.0042,3.9981,4.0047,4.0093,4.0053,4.014,4.0157,4.0197,4.0299,4.0345,4.0316,4.0507,4.0447,4.0456,4.0461,4.052,4.054,4.0557,4.0324,4.0323,4.0322,0,0,3.9956,3.9979,4.0056,4.0083,4.0123,4.0128,4.0146,4.018,4.0189,4.0276,4.0248,4.0302,4.0399,4.0429,4.0457,4.06,4.0576,4.0617,4.0693,4.0753,4.077,4.0784,4.0836,4.0855,4.0629,4.0629,4.0629,0,4.0019,4.0108,4.0099,4.0168,4.0199,4.0166,4.0244,4.0271,4.0327,4.035,4.0317,4.0438,4.0463,4.0572,4.0607,4.063,4.0652,4.0613,4.0768,4.0782,4.0796,4.0846,4.0865,4.0634,4.0633,4.0633,4.0632,0,4.0184,4.0246,4.0304,4.0358,4.0396,4.0469,4.0472,4.0512,4.0501,4.0509,4.06,4.0628,4.0686,4.0712,4.0702,4.082,4.0801,4.0768,4.071,4.0821,4.0867,4.0886,4.0641,4.0639,4.0637,4.0636,0,0,4.0356,4.0403,4.0425,4.0449,4.0491,4.054,4.0612,4.0669,4.0704,4.0743,4.0805,4.0888,4.0858,4.089,4.0883,4.0936,4.1048,4.0897,4.0897,4.0925,4.1182,4.1207,4.1229,4.1033,4.1036,4.1039,4.1179,0,4.0489,4.0614,4.0608,4.0727,4.0785,4.0755,4.0818,4.0851,4.0861,4.0913,4.0925,4.0984,4.0939,4.0959,4.1009,4.1024,4.11,4.1014,4.1091,4.1094,4.1083,4.1253,4.128,4.141,4.1197,4.12,4.1202,0,4.066,4.0705,4.0829,4.0863,4.0888,4.0945,4.0997,4.1046,4.1084,4.1087,4.1124,4.1109,4.1183,4.1122,4.1226,4.1168,4.1199,4.1211,4.1216,4.1224,4.1155,4.1267,4.1452,4.1472,4.123,4.1228,4.1226,0,4.0775,4.0866,4.0953,4.0974,4.1016,4.1057,4.1076,4.1109,4.1144,4.119,4.1213,4.1267,4.1297,4.134,4.1341,4.1296,4.1447,4.1385,4.1453,4.1453,4.1486,4.1485,4.1681,4.1506,4.1505,4.1505,4.1504,0,4.0925,4.1002,4.1005,4.1058,4.1144,4.1137,4.1223,4.1238,4.1269,4.1325,4.1302,4.1356,4.1353,4.1408,4.1409,4.1496,4.1509,4.1515,4.1515,4.1518,4.1517,4.1539,4.153,4.151,4.1509,4.1508,4.1507,0,4.1067,4.1072,4.1164,4.1195,4.1205,4.1268,4.1295,4.1346,4.1354,4.1426,4.1443,4.1456,4.152,4.1524,4.1598,4.1599,4.1704,4.1693,4.1691,4.169,4.1758,4.1752,4.1975,4.2005,4.181,4.1811,4.1813,0,4.1163,4.1221,4.1259,4.1295,4.1317,4.1375,4.141,4.1406,4.1444,4.1491,4.1537,4.1598,4.1647,4.175,4.1767,4.1824,4.1815,4.1889,4.1823,4.1825,4.1817,4.1814,4.182,4.1902,4.1904,4.1906,4.1907,0,4.1332,4.1332,4.1383,4.1436,4.1479,4.152,4.1559,4.159,4.1591,4.1635,4.1699,4.1737,4.1812,4.1873,4.1929,4.195,4.193,4.1928,4.1947,4.1951,4.1948,4.1952,4.1727,4.1923,4.1922,4.192,4.192,4.1919,4.1455,4.1506,4.1541,4.16,4.1628,4.1665,4.1715,4.1729,4.1782,4.1843,4.1837,4.1909,4.1946,4.2018,4.2043,4.21,4.2075,4.2102,4.2109,4.2116,4.2124,4.1938,4.211,4.211,4.2109,4.2109,4.2109,0,4.1624,4.1645,4.1699,4.1754,4.18,4.1776,4.1818,4.1859,4.1922,4.1957,4.2006,4.208,4.214,4.2162,4.222,4.2262,4.2254,4.2277,4.2275,4.228,4.2142,4.2121,4.2283,4.2283,4.2283,4.2283,4.2283,4.2283,4.1718,4.1804,4.1808,4.1908,4.1928,4.1998,4.2024,4.2058,4.2087,4.2171,4.222,4.2234,4.2264,4.2325,4.2379,4.2384,4.2407,4.2435,4.2436,4.2307,4.229,4.2273,4.2253,4.244,4.244,4.2569,4.257,4.2571]},{"header":{"parameterUnit":"m.s-1","parameterCategory":1,"la1":30.2991,"la2":30.254,"lo1":-89.0895,"lo2":-89.0444,"dy":0.0017,"dx":0.0017,"nx":28,"ny":28,"refTime":"2023-10-18T21:00:00:Z","depth":0,"parameterNumber":3,"parameterNumberName":"V-component_of_WINDS"},"data":[0,0,0,0,0,0,0,0,0,0,0,0,0,0,0,0,0,0,0,0,0,0,0,0,0,0,0,0,0,0,0,0,0,0,0,0,0,0,0,0,0,0,0,0,0,0,0,0,0,0,0,0,0,0,0,0,0,0,1.0748,1.0748,0,1.0708,1.0708,1.0708,1.0658,1.0658,1.0657,1.0656,1.0615,1.0614,1.0614,0,0,0,0,0,0,0,0,0,0,0,0,0,1.0781,1.0781,1.0748,1.0748,1.0747,1.0709,1.0708,1.0707,1.0658,1.0658,1.0657,1.0656,1.0615,1.0614,1.0614,0,0,0,0,0,0,0,0,0,0,0,0,0,1.0757,1.0781,1.0749,1.0718,1.0715,1.0709,1.0708,1.0707,1.0659,1.0658,1.0656,1.0655,1.0615,1.0614,1.0614,1.0634,0,0,1.0612,1.0612,0,0,0,0,0,0,0,0,1.0758,1.0756,1.0723,1.072,1.0717,1.0687,1.0704,1.0683,1.0659,1.068,1.0656,1.0655,1.064,1.0637,1.0632,1.0632,1.063,1.0612,1.0612,1.0611,1.0611,0,0,0,0,0,0,0,1.076,1.0757,1.0733,1.0723,1.0719,1.0706,1.0702,1.07,1.0667,1.0678,1.0675,1.0671,1.0638,1.0633,1.0631,1.0629,1.0612,1.0612,1.0611,1.0611,1.0641,1.0642,0,0,0,0,0,0,1.0766,1.0759,1.0734,1.0731,1.0735,1.0707,1.0701,1.0698,1.0667,1.0661,1.0672,1.0668,1.0634,1.0631,1.0629,1.0649,1.0611,1.0611,1.0611,1.064,1.0641,1.0643,0,0,0,0,0,0,1.0767,1.0765,1.0735,1.0744,1.0739,1.0707,1.0704,1.0698,1.0693,1.0662,1.0656,1.0673,1.0633,1.063,1.0632,1.0647,1.0611,1.061,1.0639,1.064,1.0642,1.069,0,0,0,0,0,0,1.0768,1.0765,1.0773,1.0745,1.0739,1.074,1.0705,1.0698,1.0692,1.0687,1.0661,1.0656,1.0632,1.0634,1.0632,1.0646,1.061,1.0637,1.0639,1.0642,1.0687,1.0693,1.0699,0,0,0,0,0,1.077,1.0788,1.0773,1.0771,1.0748,1.0741,1.0738,1.0711,1.0693,1.07,1.068,1.0656,1.0646,1.0634,1.0632,1.0646,1.0636,1.0639,1.0641,1.0684,1.0692,1.0698,0,0,0,0,0,0,1.0819,1.0784,1.0767,1.0777,1.0762,1.0733,1.0741,1.072,1.071,1.0706,1.0672,1.0667,1.0673,1.0659,1.0647,1.0662,1.0637,1.064,1.0671,1.0678,1.0684,1.0686,1.0609,0,0,0,0,0,1.0831,1.0828,1.0798,1.0809,1.0803,1.0773,1.0769,1.0749,1.0733,1.0726,1.0707,1.0691,1.0684,1.068,1.0672,1.0685,1.0678,1.0693,1.0699,1.0704,1.0706,1.071,1.0716,1.0651,1.0651,1.0651,0,0,1.0855,1.0836,1.0836,1.0819,1.0805,1.0803,1.0768,1.0768,1.0766,1.0726,1.0727,1.0712,1.0693,1.07,1.0702,1.0689,1.0722,1.0707,1.0711,1.071,1.0714,1.072,1.0725,1.0653,1.0653,1.0652,0,0,1.0899,1.0884,1.0892,1.0879,1.0858,1.0839,1.084,1.0814,1.0802,1.0803,1.0773,1.077,1.0759,1.0745,1.0737,1.0775,1.0753,1.0773,1.0803,1.0808,1.0813,1.0818,1.083,1.0835,1.0776,1.0776,1.0776,0,1.0932,1.0928,1.0898,1.0899,1.0892,1.0856,1.0863,1.0852,1.083,1.0826,1.0811,1.0795,1.078,1.0783,1.0792,1.0787,1.0788,1.0776,1.0815,1.0819,1.0823,1.0834,1.0839,1.0779,1.0778,1.0778,1.0778,0,1.0969,1.0967,1.0975,1.0955,1.0948,1.0953,1.0923,1.092,1.0901,1.0882,1.0882,1.0862,1.0849,1.0848,1.083,1.0849,1.0841,1.0821,1.0795,1.0832,1.0842,1.0847,1.0782,1.0781,1.0781,1.078,0,0,1.1042,1.1006,1.1009,1.0999,1.0974,1.0971,1.0973,1.096,1.0958,1.0944,1.0944,1.0935,1.0916,1.0907,1.0886,1.089,1.092,1.087,1.0869,1.0879,1.0939,1.0954,1.096,1.0905,1.0906,1.0907,1.094,0,1.1081,1.1083,1.1056,1.1065,1.1062,1.1027,1.1029,1.1013,1.0996,1.099,1.097,1.0964,1.094,1.0934,1.0937,1.0916,1.0932,1.0913,1.0904,1.0904,1.091,1.0965,1.0981,1.1014,1.0944,1.0945,1.0946,0,1.1126,1.1114,1.1123,1.1097,1.1094,1.1096,1.1082,1.1077,1.1058,1.1045,1.1034,1.101,1.101,1.0985,1.0983,1.0971,1.0966,1.0955,1.0956,1.0953,1.0927,1.0964,1.1024,1.1029,1.0952,1.0951,1.0951,0,1.1178,1.1164,1.1167,1.116,1.1129,1.1132,1.1119,1.1099,1.1092,1.1079,1.1075,1.1062,1.1055,1.1045,1.1018,1.1003,1.1019,1.0992,1.1007,1.1008,1.1012,1.1012,1.1071,1.1009,1.1009,1.1009,1.1009,0,1.1223,1.123,1.119,1.1192,1.1198,1.1167,1.1173,1.1157,1.114,1.1137,1.1107,1.1105,1.1069,1.1063,1.1042,1.1043,1.104,1.1029,1.1023,1.1031,1.1033,1.1027,1.1024,1.101,1.101,1.101,1.101,0,1.1282,1.1256,1.1257,1.1228,1.1221,1.1226,1.1201,1.1201,1.1181,1.1179,1.1176,1.1145,1.1136,1.1108,1.1093,1.1078,1.1085,1.1075,1.1092,1.1088,1.1104,1.1103,1.1162,1.1167,1.1102,1.1103,1.1104,0,1.1312,1.1316,1.1288,1.1284,1.1273,1.1267,1.1261,1.123,1.1224,1.1202,1.1205,1.1194,1.1183,1.117,1.1146,1.1134,1.1122,1.1143,1.112,1.1128,1.1121,1.1121,1.1121,1.1148,1.1149,1.115,1.1151,0,1.1369,1.1356,1.1347,1.1335,1.1327,1.1316,1.1302,1.1301,1.1266,1.1261,1.1252,1.1244,1.1228,1.1216,1.12,1.1186,1.1162,1.1158,1.1161,1.1169,1.1179,1.1173,1.1105,1.1157,1.1156,1.1156,1.1156,1.1155,1.1414,1.1415,1.1395,1.1387,1.1374,1.1362,1.136,1.134,1.1332,1.1317,1.1299,1.1292,1.1271,1.1247,1.1234,1.1227,1.1215,1.1219,1.122,1.1221,1.1225,1.118,1.1224,1.1224,1.1224,1.1224,1.1224,0,1.1468,1.1453,1.1446,1.1428,1.1421,1.14,1.1384,1.1379,1.1374,1.1357,1.1347,1.1336,1.1325,1.13,1.1286,1.1285,1.1274,1.1282,1.1282,1.1279,1.1237,1.1236,1.1292,1.1292,1.1292,1.1292,1.1292,1.1292,1.1495,1.1497,1.1481,1.1476,1.1461,1.1454,1.1446,1.1434,1.1421,1.141,1.1401,1.1385,1.1364,1.1349,1.1337,1.133,1.1326,1.1338,1.1327,1.1288,1.1282,1.1276,1.1274,1.1337,1.1337,1.1369,1.1369,1.137]}]]